Weather History for KDRM - December, 2012

Change the Weather History Date:

Wednesday, December 5, 2012

  Actual Average (KCIU) Record (KCIU)
Temperature  
Mean Temperature 22 °F -  
Max Temperature 30 °F 31 °F 59 °F (2001)
Min Temperature 15 °F 17 °F 0 °F (1991)
Degree Days  
Heating Degree Days 44    
Moisture  
Dew Point 17 °F    
Average Humidity 73    
Maximum Humidity 95    
Minimum Humidity 57    
Precipitation  
Precipitation 0.00 in - - ()
Sea Level Pressure  
Sea Level Pressure 30.30 in    
Wind  
Wind Speed 6 mph (NNW)    
Max Wind Speed 12 mph    
Max Gust Speed 18 mph    
Visibility 10 miles    
Events Snow    
Averages and records for this station are not official NWS values.
T = Trace of Precipitation, MM = Missing Value Source: NWS Daily Summary

Daily Weather History Graph

Daily Weather History Graph

Search for Another Location

Airport or City:

Trip Planner

Search our weather history database for the weather conditions in past years. The results will help you decide how hot, cold, wet, or windy it might be!

Date:

Astronomy

Dec. 05, 2012 Rise Set
Actual Time 8:01 AM EST 4:50 PM EST
Civil Twilight 7:27 AM EST 5:24 PM EST
Nautical Twilight 6:49 AM EST 6:01 PM EST
Astronomical Twilight 6:13 AM EST 6:37 PM EST
Moon 11:55 PM EST (12/5) 12:09 PM EST (12/5)
Length of Visible Light 9h 56m
Length of Day
8h 48m
Waning Gibbous, 60% of the Moon is Illuminated
Dec 5
Waning Gibbous
Dec 6
Last Quarter
Dec 13
New
Dec 20
First Quarter
Dec 28
Full

Hourly Weather History & Observations

Time (EST) Temp. Windchill Dew Point Humidity Pressure Visibility Wind Dir Wind Speed Gust Speed Precip Events Conditions
12:16 AM 28.2 °F 18.3 °F 23.5 °F 83% 30.07 in 5.0 mi West 11.5 mph 17.3 mph N/A Snow Light Snow
12:37 AM 28.2 °F 20.2 °F 23.9 °F 84% 30.08 in 4.0 mi West 8.1 mph - N/A Snow Light Snow
12:56 AM 27.9 °F 20.6 °F 25.7 °F 92% 30.09 in 2.0 mi West 6.9 mph 16.1 mph N/A Snow Light Snow
1:16 AM 27.9 °F 20.6 °F 25.3 °F 90% 30.09 in 10.0 mi West 6.9 mph - N/A   Overcast
1:36 AM 28.4 °F 19.7 °F 25.3 °F 88% 30.11 in 10.0 mi NW 9.2 mph - N/A   Overcast
1:56 AM 28.4 °F 21.2 °F 25.3 °F 88% 30.12 in 10.0 mi NW 6.9 mph 17.3 mph N/A Snow Light Snow
2:16 AM 28.4 °F 20.4 °F 21.0 °F 74% 30.13 in 10.0 mi NW 8.1 mph - N/A   Overcast
2:57 AM 27.5 °F 22.2 °F 17.4 °F 66% 30.15 in 10.0 mi NNW 4.6 mph - N/A   Overcast
3:16 AM 27.3 °F 22.0 °F 18.3 °F 69% 30.16 in 10.0 mi NNW 4.6 mph - N/A   Overcast
3:36 AM 27.3 °F 20.9 °F 18.3 °F 69% 30.17 in 10.0 mi North 5.8 mph - N/A   Overcast
3:57 AM 27.1 °F 19.7 °F 18.0 °F 68% 30.17 in 10.0 mi NNW 6.9 mph - N/A   Overcast
4:16 AM 27.0 °F 21.6 °F 17.6 °F 68% 30.18 in 10.0 mi NNW 4.6 mph - N/A   Overcast
4:37 AM 27.0 °F 20.5 °F 17.2 °F 67% 30.19 in 10.0 mi NNW 5.8 mph - N/A   Overcast
4:57 AM 26.6 °F 20.0 °F 16.0 °F 64% 30.20 in 10.0 mi NW 5.8 mph - N/A   Overcast
5:16 AM 27.0 °F 18.7 °F 15.8 °F 63% 30.20 in 10.0 mi NW 8.1 mph - N/A   Overcast
5:37 AM 26.6 °F 20.0 °F 15.3 °F 62% 30.22 in 10.0 mi NW 5.8 mph - N/A   Mostly Cloudy
5:56 AM 26.1 °F 20.5 °F 16.2 °F 66% 30.23 in 10.0 mi NNW 4.6 mph - N/A   Mostly Cloudy
6:17 AM 26.6 °F 16.8 °F 16.7 °F 66% 30.24 in 10.0 mi NNW 10.4 mph - N/A   Overcast
6:36 AM 26.6 °F 17.5 °F 17.1 °F 67% 30.25 in 10.0 mi NNW 9.2 mph 18.4 mph N/A   Overcast
6:57 AM 26.2 °F 19.6 °F 17.1 °F 68% 30.27 in 10.0 mi NNW 5.8 mph - N/A   Overcast
7:17 AM 25.3 °F 16.0 °F 15.8 °F 67% 30.29 in 10.0 mi NNW 9.2 mph 16.1 mph N/A   Mostly Cloudy
7:36 AM 23.9 °F 14.2 °F 13.8 °F 65% 30.30 in 10.0 mi North 9.2 mph 18.4 mph N/A   Scattered Clouds
7:57 AM 23.4 °F 12.2 °F 13.1 °F 65% 30.31 in 10.0 mi NNW 11.5 mph 16.1 mph N/A   Clear
9:36 AM 24.4 °F 16.5 °F 12.7 °F 61% 30.36 in 10.0 mi North 6.9 mph 17.3 mph N/A   Clear
9:56 AM 25.0 °F 17.1 °F 13.5 °F 62% 30.37 in 10.0 mi North 6.9 mph - N/A   Clear
10:16 AM 25.5 °F 16.2 °F 13.8 °F 61% 30.38 in 10.0 mi North 9.2 mph - N/A   Clear
10:36 AM 25.9 °F 16.6 °F 14.5 °F 62% 30.38 in 10.0 mi NNW 9.2 mph - N/A   Clear
10:56 AM 26.6 °F 18.2 °F 15.1 °F 62% 30.38 in 10.0 mi North 8.1 mph - N/A   Clear
11:16 AM 26.6 °F 19.1 °F 15.1 °F 62% 30.38 in 10.0 mi NNW 6.9 mph - N/A   Clear
11:36 AM 27.0 °F 21.6 °F 14.9 °F 60% 30.39 in 10.0 mi NW 4.6 mph - N/A   Clear
11:57 AM 27.1 °F 18.9 °F 15.4 °F 61% 30.38 in 10.0 mi North 8.1 mph - N/A   Clear
12:16 PM 27.3 °F 22.0 °F 15.4 °F 61% 30.38 in 10.0 mi NNW 4.6 mph - N/A   Clear
12:36 PM 27.3 °F 19.9 °F 15.6 °F 61% 30.38 in 10.0 mi North 6.9 mph - N/A   Clear
12:56 PM 27.3 °F 22.0 °F 15.4 °F 61% 30.38 in 10.0 mi North 4.6 mph - N/A   Clear
1:16 PM 27.7 °F 22.4 °F 15.1 °F 59% 30.38 in 10.0 mi NNW 4.6 mph - N/A   Clear
1:37 PM 27.5 °F 22.2 °F 15.6 °F 61% 30.38 in 10.0 mi NNW 4.6 mph - N/A   Clear
1:56 PM 28.4 °F 24.6 °F 15.4 °F 58% 30.37 in 10.0 mi NW 3.5 mph - N/A   Clear
2:16 PM 27.5 °F 23.6 °F 14.0 °F 57% 30.37 in 10.0 mi North 3.5 mph - N/A   Clear
2:37 PM 27.3 °F 23.4 °F 14.2 °F 58% 30.37 in 10.0 mi North 3.5 mph - N/A   Clear
2:56 PM 27.3 °F - 14.0 °F 57% 30.38 in 10.0 mi Calm Calm - N/A   Clear
3:17 PM 27.3 °F - 15.1 °F 60% 30.36 in 10.0 mi Calm Calm - N/A   Clear
3:36 PM 27.5 °F - 14.0 °F 57% 30.38 in 10.0 mi Calm Calm - N/A   Clear
3:57 PM 27.0 °F - 15.1 °F 61% 30.38 in 10.0 mi Calm Calm - N/A   Clear
4:16 PM 27.1 °F - 15.3 °F 61% 30.38 in 10.0 mi Calm Calm - N/A   Clear
4:36 PM 26.6 °F - 15.3 °F 62% 30.36 in 10.0 mi Calm Calm - N/A   Clear
4:57 PM 25.7 °F - 15.6 °F 66% 30.36 in 10.0 mi Calm Calm - N/A   Clear
5:16 PM 22.8 °F - 16.0 °F 75% 30.36 in 10.0 mi Calm Calm - N/A   Clear
5:36 PM 23.0 °F - 15.4 °F 73% 30.36 in 10.0 mi Calm Calm - N/A   Clear
5:56 PM 21.2 °F - 15.8 °F 80% 30.37 in 10.0 mi Calm Calm - N/A   Clear
6:16 PM 20.7 °F - 16.0 °F 82% 30.37 in 10.0 mi Calm Calm - N/A   Clear
6:37 PM 18.5 °F - 15.8 °F 89% 30.36 in 10.0 mi Calm Calm - N/A   Clear
6:56 PM 19.4 °F - 15.3 °F 84% 30.36 in 10.0 mi Calm Calm - N/A   Clear
7:16 PM 18.5 °F 13.3 °F 15.8 °F 89% 30.34 in 10.0 mi East 3.5 mph - N/A   Clear
7:37 PM 17.8 °F - 15.6 °F 91% 30.34 in 10.0 mi Calm Calm - N/A   Clear
7:56 PM 18.0 °F - 15.8 °F 91% 30.34 in 10.0 mi Calm Calm - N/A   Clear
8:17 PM 18.1 °F - 15.8 °F 91% 30.35 in 10.0 mi Calm Calm - N/A   Clear
8:36 PM 17.6 °F - 15.6 °F 92% 30.34 in 10.0 mi Calm Calm - N/A   Clear
8:56 PM 16.5 °F - 14.5 °F 92% 30.34 in 10.0 mi Calm Calm - N/A   Clear
9:17 PM 16.7 °F - 15.3 °F 94% 30.35 in 10.0 mi Calm Calm - N/A   Clear
9:36 PM 16.3 °F - 14.7 °F 93% 30.34 in 10.0 mi Calm Calm - N/A   Clear
9:56 PM 15.8 °F - 14.5 °F 95% 30.33 in 10.0 mi Calm Calm - N/A   Clear
10:16 PM 16.7 °F - 15.4 °F 95% 30.33 in 10.0 mi Calm Calm - N/A   Clear
10:36 PM 18.1 °F - 16.3 °F 93% 30.33 in 10.0 mi Calm Calm - N/A   Clear
10:57 PM 19.6 °F - 17.4 °F 91% 30.31 in 10.0 mi Calm Calm - N/A   Clear
11:16 PM 19.9 °F 14.9 °F 18.1 °F 93% 30.30 in 10.0 mi ESE 3.5 mph - N/A   Clear
11:36 PM 21.0 °F - 19.2 °F 93% 30.29 in 10.0 mi Calm Calm - N/A   Scattered Clouds
11:57 PM 21.4 °F 15.1 °F 19.4 °F 92% 30.29 in 10.0 mi SSE 4.6 mph - N/A   Scattered Clouds